Location: Green Island
(42.7442°N, 73.6915°W)
Time: 14:49:12
(UTC+00:00)

Daily predictions for brighter satellites

Satellite Brightness Start Highest point End
(mag) Time Altitude Azimuth Time Altitude Azimuth Time Altitude Azimuth
PAYLOAD B 4.2 21:49:20 10° SSE 21:54:54 74° ENE 22:00:29 10° N
ERS-2 3.7 21:54:10 10° NE 21:56:46 18° E 21:59:21 10° SE
CZ-4B DEB 4.3 21:52:12 10° SSE 21:57:41 88° WSW 22:03:12 10° NNW
Cosmos 2184 Rocket 4.3 21:54:47 10° N 22:01:12 81° W 22:07:31 10° S
Cosmos 2333 Rocket 3.6 21:56:13 10° WSW 22:01:27 37° WNW 22:06:42 10° N
Envisat 3.1 21:59:43 10° SSE 22:04:48 84° W 22:09:54 10° NNW
Cosmos 1743 Rocket 3.7 22:00:34 10° N 22:05:04 82° W 22:09:30 10° S
BREEZE-M TANK 3.1 21:59:35 10° WNW 22:06:28 70° SSW 22:09:45 10° ESE
USA 267 4.0 22:00:45 10° E 22:06:28 34° NNE 22:12:12 10° NW
COSMO-SKYMED 1 4.0 22:03:43 10° NE 22:06:51 19° E 22:09:58 10° SE
COSMOS 2428 3.9 22:01:47 10° SW 22:07:12 42° WNW 22:12:39 10° NNE
Lacrosse 5 rocket 2.7 22:04:43 10° S 22:07:25 19° SE 22:09:52 11° E
Cosmos 1862 3.3 22:04:16 10° N 22:08:19 88° W 22:12:19 10° S
SL-24 R/B - RUBIN 2 4.3 22:03:12 10° NNW 22:09:31 77° NE 22:15:04 10° SE
Sich 1 3.4 22:06:42 10° N 22:10:52 41° ENE 22:15:00 10° SSE
NOAA 12 4.1 22:06:48 10° SSE 22:12:05 68° ENE 22:17:23 10° N
Cosmos 2278 Rocket 2.3 22:06:50 10° NNW 22:12:33 84° WSW 22:18:13 10° SSE
Okean-O 4.2 22:10:29 10° E 22:12:51 14° ENE 22:15:11 10° NNE
GENESIS II 4.1 22:13:24 10° NNW 22:17:21 65° NE 22:21:12 10° SE
CZ-4C R/B 4.2 22:15:12 10° N 22:18:41 45° WNW 22:22:08 10° SW
AQUARIUS 4.1 22:16:33 10° SSE 22:21:02 75° ENE 22:25:31 10° N
Okean O Rocket 1.5 22:17:09 10° SSE 22:21:29 77° ENE 22:25:52 10° N
Cosmos 44 4.4 22:18:06 10° NNW 22:22:41 29° NE 22:27:21 10° ESE
Cosmos 1151 Rocket 3.9 22:19:51 10° SSE 22:23:28 27° E 22:27:06 10° NNE
H-2A R/B 3.6 22:23:09 14° E 22:24:41 15° ENE 22:27:36 10° NNE
Cosmos 1805 Rocket 3.5 22:20:26 10° N 22:24:55 81° E 22:29:21 10° S
Radarsat Rocket 4.4 22:19:59 10° S 22:25:53 71° WSW 22:32:26 10° NNW
CZ-4 R/B 2.9 22:26:58 16° ENE 22:26:58 16° ENE 22:29:09 10° NNE
YAOGAN 6 3.6 22:23:21 10° S 22:26:55 50° W 22:30:28 10° NNW
Cosmos 2219 Rocket 4.1 22:22:57 10° WSW 22:27:38 26° NW 22:32:21 10° N
Cosmos 389 Rocket 2.3 22:25:03 10° S 22:28:26 67° E 22:31:51 10° NNE
Cosmos 1666 Rocket 3.9 22:27:05 10° N 22:31:18 44° ENE 22:35:32 10° SSE
USA 281 3.8 22:26:26 10° ESE 22:32:14 35° NE 22:38:03 10° N
Cosmos 1328 Rocket 4.3 22:29:23 10° SSE 22:33:10 30° E 22:36:41 12° NNE
CZ-4B R/B 3.4 22:29:25 10° S 22:34:46 72° WSW 22:40:05 10° NNW
Cosmos 1939 Rocket 3.2 22:32:42 10° SE 22:36:18 39° ENE 22:39:58 10° N
BREEZE-M DEB (TANK) 4.3 22:34:50 10° S 22:37:00 13° SSE 22:38:20 11° SE
ISS -2.4 22:34:52 10° W 22:37:56 31° NNW 22:39:50 18° NNE
Cosmos 2237 Rocket 2.7 22:33:05 10° SW 22:38:37 59° WNW 22:44:12 10° NNE
OE (NEXTSAT) 4.2 22:36:30 10° WSW 22:39:57 84° SSE 22:41:40 27° ENE
NOAA 11 4.1 22:34:45 10° SSE 22:40:09 79° ENE 22:45:36 10° N
Cosmos 2218 Rocket 4.1 22:35:01 10° N 22:40:55 47° ENE 22:46:49 10° SSE
H-2A R/B 3.6 22:45:58 10° N 22:49:45 34° WNW 22:53:35 10° SW
CREW DRAGON DEMO-1 DEB 3.3 22:47:05 10° NW 22:49:54 38° NNE 22:50:09 37° NE
CZ-4B R/B 1.2 22:47:00 10° N 22:50:01 77° WNW 22:53:07 10° SSW
Cosmos 2366 rocket 4.0 22:44:12 10° N 22:50:16 54° ENE 22:56:15 10° SSE
FengYun 1-2 T 4.3 22:44:44 10° SSE 22:50:17 81° WSW 22:55:50 10° NNW
Cosmos 1356 3.6 22:49:09 10° NNW 22:52:34 72° W 22:55:58 10° S
Cosmos 2369 Rocket 3.2 22:48:28 10° N 22:52:59 23° NE 22:53:22 23° ENE
SKYMED 2 3.5 22:50:53 10° NNE 22:55:13 62° ESE 22:59:30 10° S
Abrixas rocket 4.4 22:53:43 10° W 22:55:50 20° SW 22:57:57 10° SSE
Cosmos 1633 Rocket 2.9 22:56:32 10° N 23:00:56 76° E 23:05:16 10° SSE
EO 1 Delta rocket 4.5 22:57:11 10° NNE 23:02:36 61° E 23:09:25 10° S
X-37B 2.8 23:03:02 10° S 23:04:30 15° SSE 23:04:30 15° SSE
Cosmos 1867 3.8 23:00:16 10° SW 23:05:41 70° NW 23:09:40 19° NNE
Cosmos 1606 4.3 23:04:53 10° SW 23:08:30 36° WNW 23:12:08 10° N
SAR-Lupe-4 3.4 23:08:16 28° NNE 23:10:04 90° NW 23:13:39 10° SSW
Cosmos 1538 Rocket 4.5 23:05:16 10° S 23:10:12 39° ESE 23:11:04 37° E
Cosmos 1933 3.7 23:07:06 10° SSW 23:11:06 66° W 23:15:08 10° N
CZ-2C R/B 3.0 23:08:03 10° SSE 23:13:04 55° ENE 23:17:52 10° N
Cosmos 1943 Rocket 2.2 23:11:42 10° NNW 23:17:07 52° ENE 23:19:12 34° ESE
USA 215 3.4 23:12:52 24° NE 23:17:08 73° NW 23:23:38 10° WSW
SL-24 DEB 4.1 23:16:21 10° N 23:21:08 77° E 23:25:50 10° S
Cosmos 2297 3.7 23:15:29 10° NNW 23:21:13 87° WSW 23:26:55 10° SSE
ARGOS 4.5 23:24:18 24° NNE 23:24:18 24° NNE 23:26:44 10° N
Cosmos 1782 2.6 23:21:06 10° S 23:25:01 82° E 23:25:18 75° NE
Meteor 1-4 Rocket 2.7 23:23:18 10° S 23:26:26 64° S 23:26:26 64° S
SL-16 R/B 2.5 23:21:45 10° SW 23:27:22 66° WNW 23:31:22 20° NNE
YAOGAN 1 2.9 23:30:24 49° NNE 23:30:24 49° NNE 23:33:42 10° N
ERS-2 4.0 23:27:07 10° N 23:30:20 29° WNW 23:33:32 10° SW
BREEZE-M DEB (TANK) 3.5 23:21:45 10° SW 23:31:01 56° SSE 23:31:28 53° SE
Cosmos 1689 Rocket 3.8 23:32:45 30° SW 23:32:45 30° SW 23:34:30 10° SSW
Cosmos 2285 Rocket 4.1 23:26:40 10° NNW 23:33:05 80° WSW 23:39:25 10° SSE
PSLV R/B 4.1 23:32:06 41° N 23:33:22 70° WNW 23:37:22 10° SSW
SL-24 R/B 4.4 23:32:18 25° N 23:34:25 54° WNW 23:38:03 10° SSW
Meteor 1-14 Rocket 4.2 23:29:47 10° N 23:35:45 78° E 23:41:44 10° SSE
ATLAS CENTAUR R/B 4.4 23:14:43 10° NW 23:36:01 83° NE 23:40:44 31° SE
Helios 1A Rocket 2.9 23:36:28 73° NW 23:36:28 73° NW 23:40:10 10° NNW
Nadezhda 3 Rocket 4.1 23:30:08 10° SSE 23:36:16 53° E 23:37:29 47° NE
Cosmos 1470 Rocket 3.5 23:33:13 10° N 23:37:33 77° W 23:41:51 10° S
DMSP B5D1-3 4.4 23:41:18 65° ESE 23:41:18 65° ESE 23:46:07 10° S
COSMO-SKYMED 1 3.9 23:39:20 11° N 23:43:09 39° WNW 23:47:11 10° SW
Cosmos 1515 Rocket 3.6 23:39:21 10° SSW 23:43:41 76° W 23:43:50 75° WNW
CZ-2D R/B 4.4 23:40:41 10° S 23:44:17 42° W 23:47:57 10° NNW
Lacrosse 5 rocket 2.3 23:42:45 10° WSW 23:45:31 39° WNW 23:45:31 39° WNW
Okean-O 3.0 23:44:26 10° S 23:48:47 62° WSW 23:53:13 10° NNW
USA 267 3.1 23:47:07 51° ESE 23:48:56 80° NE 23:55:29 10° NW
Cosmos 1821 Rocket 3.8 23:46:04 10° N 23:52:17 70° E 23:53:06 62° SE
MOS 1 Rocket 3.7 23:51:15 32° N 23:53:50 77° WNW 23:59:14 10° SSW
